TimeEST,TemperatureF,Dew PointF,Humidity,Sea Level PressureIn,VisibilityMPH,Wind Direction,Wind SpeedMPH,Gust SpeedMPH,PrecipitationIn,Events,Conditions,WindDirDegrees,DateUTC
12:53 AM,64.4,62.6,94,30.13,10.0,Calm,Calm,-,N/A,,Partly Cloudy,0,2011-11-23 05:53:00
1:53 AM,64.0,61.0,90,30.11,10.0,Calm,Calm,-,N/A,,Clear,0,2011-11-23 06:53:00
2:53 AM,64.0,61.0,90,30.09,10.0,SSW,3.5,-,N/A,,Clear,210,2011-11-23 07:53:00
3:53 AM,68.0,64.0,87,30.09,10.0,SSW,5.8,-,N/A,,Clear,200,2011-11-23 08:53:00
4:53 AM,68.0,64.0,87,30.09,10.0,SSW,5.8,-,N/A,,Clear,210,2011-11-23 09:53:00
5:53 AM,66.0,63.0,90,30.09,10.0,West,3.5,-,N/A,,Clear,260,2011-11-23 10:53:00
6:48 AM,64.4,62.6,94,30.11,10.0,Calm,Calm,-,N/A,,Partly Cloudy,0,2011-11-23 11:48:00
6:53 AM,64.9,62.1,90,30.11,10.0,Calm,Calm,-,N/A,,Clear,0,2011-11-23 11:53:00
7:53 AM,69.1,66.0,90,30.12,10.0,WSW,4.6,-,N/A,,Clear,240,2011-11-23 12:53:00
8:53 AM,73.0,68.0,84,30.12,10.0,WSW,5.8,-,N/A,,Clear,240,2011-11-23 13:53:00
9:53 AM,77.0,69.1,76,30.12,10.0,SSW,10.4,-,N/A,,Partly Cloudy,210,2011-11-23 14:53:00
10:53 AM,78.1,66.9,68,30.11,10.0,WSW,10.4,-,N/A,,Mostly Cloudy,240,2011-11-23 15:53:00
11:53 AM,81.0,64.0,56,30.08,10.0,WSW,11.5,-,N/A,,Partly Cloudy,240,2011-11-23 16:53:00
12:53 PM,82.9,64.0,53,30.04,10.0,WSW,16.1,-,N/A,,Scattered Clouds,250,2011-11-23 17:53:00
1:53 PM,82.9,63.0,51,30.01,10.0,WSW,9.2,18.4,N/A,,Scattered Clouds,250,2011-11-23 18:53:00
2:53 PM,82.0,64.0,54,29.99,10.0,West,11.5,18.4,N/A,,Partly Cloudy,260,2011-11-23 19:53:00
3:53 PM,82.0,64.0,54,29.99,10.0,West,10.4,-,N/A,,Clear,260,2011-11-23 20:53:00
4:53 PM,78.1,66.0,66,30.00,10.0,WNW,4.6,-,N/A,,Clear,290,2011-11-23 21:53:00
5:53 PM,75.9,66.9,74,30.00,10.0,West,3.5,-,N/A,,Partly Cloudy,280,2011-11-23 22:53:00
6:53 PM,73.0,66.0,79,30.01,10.0,West,5.8,-,N/A,,Clear,270,2011-11-23 23:53:00
7:53 PM,72.0,66.0,81,30.04,10.0,WNW,4.6,-,N/A,,Clear,290,2011-11-24 00:53:00
8:53 PM,72.0,66.9,84,30.05,10.0,West,8.1,-,N/A,,Clear,280,2011-11-24 01:53:00
9:53 PM,71.1,66.9,87,30.06,10.0,West,5.8,-,N/A,,Clear,280,2011-11-24 02:53:00
10:43 PM,69.8,66.2,88,30.06,10.0,West,5.8,-,N/A,,Mostly Cloudy,280,2011-11-24 03:43:00
10:53 PM,70.0,66.9,90,30.06,10.0,West,6.9,-,N/A,,Mostly Cloudy,280,2011-11-24 03:53:00
11:06 PM,69.8,66.2,88,30.07,10.0,West,6.9,-,N/A,,Scattered Clouds,280,2011-11-24 04:06:00
11:53 PM,70.0,66.0,87,30.06,10.0,WNW,6.9,-,N/A,,Partly Cloudy,290,2011-11-24 04:53:00